Weather History for Scottsbluff, NE

Change the Weather History Date:

Friday, January 22, 2010

  Actual Average Record
Temperature  
Mean Temperature 34 °F 28 °F  
Max Temperature 37 °F 41 °F 65 °F (2009)
Min Temperature 30 °F 14 °F -19 °F (1917)
Degree Days  
Heating Degree Days 31 37  
Month to date heating degree days 807 837  
Since 1 July heating degree days 3877 3609  
Cooling Degree Days 0 0  
Month to date cooling degree days 0  
Year to date cooling degree days 0  
Moisture  
Dew Point 33 °F    
Average Humidity 93    
Maximum Humidity 100    
Minimum Humidity 85    
Precipitation  
Precipitation 0.00 in 0.02 in 0.22 in (1996)
Month to date precipitation 0.03 0.29  
Year to date precipitation 0.03 0.29  
Snow  
Snow 0.00 in 0.20 in 4.00 in (2003)
Month to date snowfall 1.3 3.8  
Since 1 July snowfall 53.3 19.8  
Snow Depth 0.00 in    
Sea Level Pressure  
Sea Level Pressure 29.31 in    
Wind  
Wind Speed 9 mph (East)    
Max Wind Speed 37 mph    
Max Gust Speed 85 mph    
Visibility 2 miles    
Events Fog    
T = Trace of Precipitation, MM = Missing Value Source: NWS Daily Summary

Daily Weather History Graph

Daily Weather History Graph

Search for Another Location

Airport:

Trip Planner

Search our weather history database for the weather conditions in past years. The results will help you decide how hot, cold, wet, or windy it might be!

Date:

Astronomy

Jan. 22, 2010 Rise Set
Actual Time 7:15 AM MST 4:56 PM MST
Civil Twilight 6:45 AM MST 5:27 PM MST
Nautical Twilight 6:11 AM MST 6:01 PM MST
Astronomical Twilight 5:38 AM MST 6:34 PM MST
Moon 10:15 AM MST (1/22) No Moon Set
Length of Visible Light 10h 41m
Length of Day
9h 41m
Waxing Crescent, 43% of the Moon is Illuminated
Jan 22
Waxing Crescent
Jan 23
First Quarter
Jan 29
Full
Feb 5
Last Quarter
Feb 13
New

Hourly Weather History & Observations

Time (MST) Temp. Windchill Dew Point Humidity Pressure Visibility Wind Dir Wind Speed Gust Speed Precip Events Conditions
12:01 AM 35.6 °F 25.9 °F 32.0 °F 87% 29.43 in 7.0 mi ESE 16.1 mph - N/A   Mostly Cloudy
12:14 AM 35.6 °F 26.6 °F 32.0 °F 87% 29.43 in 7.0 mi ESE 13.8 mph - N/A   Overcast
12:53 AM 34.0 °F 24.6 °F 32.0 °F 92% 29.44 in 5.0 mi East 13.8 mph 25.3 mph N/A   Overcast
1:01 AM 33.8 °F - 32.0 °F 93% 29.40 in 5.0 mi North - - N/A   Overcast
1:13 AM 33.8 °F - 32.0 °F 93% 29.40 in 4.0 mi North - - N/A   Overcast
1:37 AM 33.8 °F 24.8 °F 32.0 °F 93% 29.40 in 3.0 mi ESE 12.7 mph - N/A   Overcast
1:53 AM 34.0 °F 25.0 °F 32.0 °F 92% 29.41 in 2.5 mi ESE 12.7 mph - N/A   Overcast
2:04 AM 33.8 °F 24.8 °F 32.0 °F 93% 29.37 in 3.0 mi ESE 12.7 mph - N/A   Overcast
2:46 AM 33.8 °F 23.9 °F 32.0 °F 93% 29.36 in 2.5 mi SE 15.0 mph - N/A   Overcast
2:53 AM 34.0 °F 23.0 °F 32.0 °F 92% 29.36 in 1.5 mi SE 18.4 mph - N/A   Overcast
2:59 AM 33.8 °F 23.2 °F 33.8 °F 100% 29.36 in 0.8 mi SE 17.3 mph - N/A   Overcast
3:22 AM 33.8 °F 23.2 °F 33.8 °F 100% 29.35 in 0.2 mi SE 17.3 mph - N/A Fog Fog
3:53 AM 34.0 °F 23.8 °F 32.0 °F 92% 29.34 in 0.2 mi SE 16.1 mph - N/A Fog Fog
4:14 AM 33.8 °F 22.8 °F 32.0 °F 93% 29.32 in 0.5 mi ESE 18.4 mph 24.2 mph N/A Fog Fog
4:21 AM 33.8 °F 23.5 °F 32.0 °F 93% 29.31 in 0.2 mi ESE 16.1 mph - N/A Fog Fog
4:53 AM 33.1 °F 23.9 °F 32.0 °F 96% 29.34 in 0.2 mi ESE 12.7 mph - N/A Fog Fog
5:53 AM 33.1 °F 23.4 °F 32.0 °F 96% 29.34 in 0.2 mi ESE 13.8 mph - N/A Fog Fog
6:16 AM 32.0 °F 22.1 °F 30.2 °F 93% 29.31 in 0.5 mi ESE 13.8 mph - N/A Fog Fog
6:53 AM 32.0 °F 21.6 °F 30.9 °F 96% 29.33 in 0.5 mi ESE 15.0 mph - N/A Fog Fog
7:20 AM 32.0 °F 22.5 °F 30.2 °F 93% 29.30 in 0.2 mi ESE 12.7 mph - N/A Fog Fog
7:53 AM 32.0 °F 22.5 °F 30.9 °F 96% 29.35 in 0.2 mi ESE 12.7 mph - N/A Fog Fog
8:53 AM 32.0 °F 22.1 °F 30.9 °F 96% 29.34 in 0.2 mi ESE 13.8 mph - N/A Fog Fog
9:53 AM 33.1 °F 21.9 °F 32.0 °F 96% 29.26 in 0.2 mi ESE 18.4 mph - N/A Fog Fog
10:53 AM 33.1 °F 23.0 °F 32.0 °F 96% 29.27 in 0.2 mi SE 15.0 mph - N/A Fog Fog
11:53 AM 33.1 °F 26.1 °F 33.1 °F 100% 29.27 in 0.2 mi SE 8.1 mph - N/A Fog Fog
12:53 PM 34.0 °F 26.6 °F 34.0 °F 100% 29.26 in 0.2 mi ESE 9.2 mph - N/A Fog Fog
1:39 PM 35.6 °F 29.9 °F 33.8 °F 93% 29.19 in 0.5 mi NE 6.9 mph - N/A Fog Fog
1:53 PM 35.1 °F 28.6 °F 35.1 °F 100% 29.22 in 1.8 mi NNE 8.1 mph - N/A   Overcast
2:11 PM 35.6 °F 31.7 °F 35.6 °F 100% 29.23 in 2.5 mi East 4.6 mph - N/A   Overcast
2:22 PM 35.6 °F 31.7 °F 35.6 °F 100% 29.25 in 3.0 mi ESE 4.6 mph - N/A   Overcast
2:43 PM 35.6 °F 30.7 °F 35.6 °F 100% 29.24 in 2.0 mi East 5.8 mph - N/A   Overcast
2:50 PM 35.6 °F 29.9 °F 35.6 °F 100% 29.25 in 1.5 mi East 6.9 mph - N/A   Overcast
2:53 PM 35.1 °F 28.6 °F 35.1 °F 100% 29.27 in 1.8 mi East 8.1 mph - N/A   Overcast
3:03 PM 35.6 °F 30.7 °F 35.6 °F 100% 29.24 in 2.0 mi East 5.8 mph - N/A   Overcast
3:22 PM 35.6 °F - 35.6 °F 100% 29.24 in 3.0 mi Calm Calm - N/A   Overcast
3:43 PM 37.4 °F - 37.4 °F 100% 29.25 in 4.0 mi Calm Calm - N/A   Overcast
3:53 PM 37.0 °F - 37.0 °F 100% 29.28 in 5.0 mi Calm Calm - N/A   Overcast
4:01 PM 35.6 °F 31.7 °F 35.6 °F 100% 29.26 in 4.0 mi ESE 4.6 mph - N/A   Overcast
4:20 PM 35.6 °F - 35.6 °F 100% 29.27 in 4.0 mi Calm Calm - N/A   Overcast
4:30 PM 35.6 °F 32.8 °F 35.6 °F 100% 29.27 in 3.0 mi SSE 3.5 mph - N/A   Overcast
4:38 PM 35.6 °F 32.8 °F 35.6 °F 100% 29.26 in 2.5 mi SE 3.5 mph - N/A   Overcast
4:53 PM 36.0 °F - 36.0 °F 100% 29.29 in 1.8 mi Calm Calm - N/A   Overcast
5:01 PM 35.6 °F 31.7 °F 35.6 °F 100% 29.26 in 0.8 mi South 4.6 mph - N/A   Overcast
5:51 PM 35.6 °F 30.7 °F 35.6 °F 100% 29.28 in 0.5 mi South 5.8 mph - N/A Fog Fog
5:53 PM 35.1 °F 31.0 °F 34.0 °F 96% 29.31 in 0.2 mi South 4.6 mph - N/A Fog Fog
6:53 PM 34.0 °F - 34.0 °F 100% 29.32 in 0.2 mi Calm Calm - N/A Fog Fog
7:34 PM 35.6 °F 30.7 °F 33.8 °F 93% 29.31 in 0.2 mi NW 5.8 mph - N/A Fog Fog
7:45 PM 35.6 °F 31.7 °F 35.6 °F 100% 29.31 in 0.5 mi NW 4.6 mph - N/A Fog Fog
7:53 PM 35.1 °F 30.1 °F 35.1 °F 100% 29.34 in 0.5 mi NW 5.8 mph - N/A Fog Fog
8:23 PM 35.6 °F 32.8 °F 35.6 °F 100% 29.30 in 1.0 mi WNW 3.5 mph - N/A   Overcast
8:35 PM 33.8 °F 29.6 °F 33.8 °F 100% 29.30 in 2.5 mi NW 4.6 mph - N/A   Overcast
8:42 PM 33.8 °F 30.8 °F 33.8 °F 100% 29.30 in 3.0 mi NW 3.5 mph - N/A   Overcast
8:53 PM 34.0 °F - 34.0 °F 100% 29.34 in 3.0 mi Calm Calm - N/A   Overcast
9:37 PM 33.8 °F - 33.8 °F 100% 29.30 in 3.0 mi Calm Calm - N/A   Scattered Clouds
9:53 PM 32.0 °F 27.5 °F 32.0 °F 100% 29.34 in 4.0 mi ENE 4.6 mph - N/A   Clear
10:40 PM 30.2 °F 26.7 °F 28.4 °F 93% 29.30 in 3.0 mi NE 3.5 mph - N/A   Partly Cloudy
10:53 PM 30.0 °F 26.5 °F 27.0 °F 88% 29.34 in 2.5 mi NNE 3.5 mph - N/A   Partly Cloudy
11:04 PM 30.2 °F - 28.4 °F 93% 29.29 in 3.0 mi Calm Calm - N/A   Scattered Clouds
11:07 PM 30.2 °F 26.7 °F 28.4 °F 93% 29.30 in 2.5 mi NNW 3.5 mph - N/A   Mostly Cloudy
11:15 PM 30.2 °F 26.7 °F 28.4 °F 93% 29.30 in 1.2 mi North 3.5 mph - N/A   Mostly Cloudy
11:28 PM 32.0 °F 27.5 °F 30.2 °F 93% 29.30 in 3.0 mi NNW 4.6 mph - N/A   Overcast
11:44 PM 30.2 °F 24.3 °F 30.2 °F 100% 29.30 in 1.8 mi NNW 5.8 mph - N/A   Overcast
11:53 PM 30.9 °F - 30.0 °F 96% 29.35 in 0.8 mi Calm Calm - N/A   Overcast